Hidden Valley, Valles Caldera, New Mexico Weather observations

Data are for 10 minute period ending at time listed.
 Day   Time   Solar   Ave.   Ave.  Ave.  Vector  Max.   Baro.   Total    
  of    of     Rad.   Air    Rel.  Wind   Wind   Wind  Press.  Precip.   
Year   Day            Temp.  Hum.  Speed  Dir.   Gust                    
2026   (MST)  Kw/m2    F      %     mph   deg.    mph    mb.     in.     
-------------------------------------------------------------------------
 243   20:30   5.00   55.3     4    1.0   207     1.9     0.0    0.01 
 243   20:40   -8190.00   55.8     4    1.0   200     2.4     0.0    0.01 
 243   20:50   5.22   56.6     5    0.6   198     1.6     0.0    0.01 
 243   21:00   -8190.00   57.9     5    1.0   215     3.2     0.0    0.01 
 243   21:10   -8190.00   58.2     5    0.6   195     2.5     0.0    0.01 
 243   21:20   -8190.00   58.5     4    0.8   163     2.9     0.0    0.01 
 243   21:30   -8190.00   58.3     4    0.5   196     2.1     0.0    0.01 
 243   21:40   5.25   58.2     3    0.4   270     1.7     0.0    0.01 
 243   21:50   5.19   57.3     2    1.6   319     2.1     0.0    0.01 
 243   22:00   5.22   57.5     2    1.6   306     2.8     0.0    0.01 
 243   22:10   5.21   57.3     2    0.7   235     1.6     0.0    0.01 
 243   22:20   5.15   57.0     1    0.5   229     1.6     0.0    0.01 
 243   22:30   5.03   56.0     1    1.0   101     1.9     0.0    0.01 
 243   22:40   4.76   54.5     1    0.2    39     1.2     0.0    0.01 
 243   22:50   4.76   54.0     3    0.0   295     0.0     0.0    0.01 
 243   23:00   4.78   54.1     5    0.5   298     0.8     0.0    0.01 
 243   23:10   4.78   54.5     7    0.0   300     0.3     0.0    0.01 
 243   23:20   4.55   54.3     8    0.0   295     0.4     0.0    0.01 
 243   23:30   3.82   53.7    10    0.1   295     0.4     0.0    0.01 
 243   23:40   3.47   53.6    12    0.1   295     0.6     0.0    0.01 
 243   23:50   3.31   53.5    13    0.1   300     0.5     0.0    0.01 
 244    0:00   2.97   53.1    14    0.3   249     1.2     0.0    0.01 
 244    0:10   3.57   53.2    17    0.2   197     0.9     0.0    0.01 
 244    0:20   4.07   53.7    16    0.1   205     0.5     0.0    0.01 
 244    0:30   4.11   53.8    13    0.2   292     0.8     0.0    0.01 
 244    0:40   3.89   53.4    12    0.3   322     1.0     0.0    0.01 
 244    0:50   4.18   53.5    12    0.4    61     1.4     0.0    0.01 
 244    1:00   3.66   53.5    13    0.0    58     0.2     0.0    0.01 
 244    1:10   3.10   53.2    16    0.2    78     0.9     0.0    0.01 
 244    1:20   3.57   52.9    16    0.0     0     0.0     0.0    0.01 
 244    1:30   3.71   53.2    17    0.0    57     0.3     0.0    0.01 
 244    1:40   3.57   53.5    18    1.1   195     2.1     0.0    0.01 
 244    1:50   4.46   53.9    17    1.2   193     1.9     0.0    0.01 
 244    2:00   -8190.00   54.6    14    2.0   172     4.4     0.0    0.01 
 244    2:10   5.21   56.3    15    3.1   180     4.6     0.0    0.01 
 244    2:20   5.17   56.1    14    3.2   176     5.9     0.0    0.01 
 244    2:30   5.06   55.5    12    2.8   186     5.0     0.0    0.01 
 244    2:40   4.95   55.1    10    2.3   178     4.1     0.0    0.01 
 244    2:50   4.91   55.0     9    1.4   206     2.4     0.0    0.01 
 244    3:00   4.83   54.9     9    2.0   202     3.1     0.0    0.01 
 244    3:10   4.78   54.8     9    1.1   166     1.6     0.0    0.01 
 244    3:20   4.73   54.9    10    0.3   185     0.9     0.0    0.01 
 244    3:30   4.29   54.5    10    1.1    43     2.6     0.0    0.01 
 244    3:40   4.13   53.8    11    1.1    10     1.9     0.0    0.01 
 244    3:50   3.42   53.3    10    0.7   104     1.3     0.0    0.01 
 244    4:00   3.16   53.2    10    0.2   111     0.8     0.0    0.01 
 244    4:10   3.18   53.2    13    0.1   111     0.4     0.0    0.01 
 244    4:20   2.94   53.3    13    0.0   112     0.3     0.0    0.01 
 244    4:30   2.81   53.1    12    0.1   112     0.6     0.0    0.01 
 244    4:40   2.69   52.9    12    0.0     0     0.0     0.0    0.01 
 244    4:50   2.72   52.9    12    0.4   102     0.9     0.0    0.01 
 244    5:00   2.87   52.8    13    0.4   177     1.1     0.0    0.01 
 244    5:10   3.05   52.8    13    0.8    55     1.5     0.0    0.01 
 244    5:20   3.40   52.7    13    0.3    13     1.4     0.0    0.01 
 244    5:30   3.73   52.9    13    0.8    25     1.4     0.0    0.01 
 244    5:40   2.71   52.7    12    1.1    40     1.4     0.0    0.01 
 244    5:50   2.57   52.2    12    0.4   114     1.0     0.0    0.01 
 244    6:00   2.65   52.0    12    0.8   323     1.5     0.0    0.01 
 244    6:10   2.93   52.1    12    1.2   304     1.6     0.0    0.01 
 244    6:20   2.79   51.8    13    0.6   327     1.6     0.0    0.01 
 244    6:30   2.81   51.1    13    0.5     1     1.0     0.0    0.01 
 244    6:40   2.84   51.2    14    0.6    83     1.1     0.0    0.01 
 244    6:50   3.91   51.8    14    0.0    75     0.3     0.0    0.01 
 244    7:00   4.75   52.5    15    0.0     0     0.0     0.0    0.01 
 244    7:10   4.58   53.1    15    0.0     0     0.0     0.0    0.01 
 244    7:20   4.50   53.4    14    0.2    85     0.5     0.0    0.01 
 244    7:30   4.74   53.9    14    0.2   143     0.8     0.0    0.01 
 244    7:40   -8190.00   54.9    13    0.1   133     0.5     0.0    0.01 
 244    7:50   -8190.00   56.6    13    0.0   133     0.3     0.0    0.01 
 244    8:00   -8190.00   57.3    13    0.4    58     1.1     0.0    0.01 
 244    8:10   -8190.00   57.4    13    0.4    48     0.9     0.0    0.01 
 244    8:20   -8190.00   57.8    12    0.7    36     1.4     0.0    0.01 
 244    8:30   -8190.00   58.4    11    0.5    10     1.7     0.0    0.01 
 244    8:40   -8190.00   59.6    11    0.5    30     1.2     0.0    0.01 
 244    8:50   -8190.00   60.3    10    0.4    25     0.9     0.0    0.01 
 244    9:00   -8190.00   61.6    10    0.5     7     1.3     0.0    0.01 
 244    9:10   -8190.00   63.2    10    0.7    14     1.9     0.0    0.01 
 244    9:20   -8190.00   63.4    10    1.3   137     2.7     0.0    0.01 
 244    9:30   -8190.00   63.4     7    1.4   172     3.0     0.0    0.01 
 244    9:40   -8190.00   63.4     6    2.1   202     4.1     0.0    0.01 
 244    9:50   -8190.00   62.8     4    2.8   143     4.6     0.0    0.01 
 244   10:00   -8190.00   62.2     2    2.8   140     4.6     0.0    0.01 
 244   10:10   -8190.00   61.5     1    3.9   140     5.7     0.0    0.01 
 244   10:20   -8190.00   61.0     0    4.3   144     6.5     0.0    0.01 
 244   10:30   -8190.00   60.8     0    3.2   161     5.9     0.0    0.01 
 244   10:40   -8190.00   60.5    -0    2.1   163     4.3     0.0    0.01 
 244   10:50   -8190.00   61.4     0    1.0   138     2.5     0.0    0.01 
 244   11:00   -8190.00   63.2     2    1.4   165     2.9     0.0    0.01 
 244   11:10   -8190.00   63.8     2    1.1   184     2.6     0.0    0.01 
 244   11:20   -8190.00   63.8     1    1.8   179     4.3     0.0    0.01 
 244   11:30   -8190.00   64.4     1    2.7   202     5.3     0.0    0.01 
 244   11:40   -8190.00   65.3     1    3.2   225     6.4     0.0    0.01 
 244   11:50   -8190.00   65.8     1    2.0   192     5.6     0.0    0.01 
 244   12:00   -8190.00   64.9    -0    3.0   200     5.8     0.0    0.01 
 244   12:10   -8190.00   64.7    -1    2.2   180     5.5     0.0    0.01 
 244   12:20   -8190.00   64.7    -1    1.7   191     4.1     0.0    0.01 
 244   12:30   -8190.00   64.3    -1    3.2   135     4.4     0.0    0.01 
 244   12:40   -8190.00   64.3    -1    2.8   126     5.2     0.0    0.01 
 244   12:50   -8190.00   64.3    -1    3.4   199     5.7     0.0    0.01 
 244   13:00   -8190.00   63.7    -1    3.0   220     4.8     0.0    0.01 
 244   13:10   -8190.00   62.4    -2    2.8   204     4.7     0.0    0.01 
 244   13:20   -8190.00   62.6    -1    2.9   192     4.2     0.0    0.01 
 244   13:30   -8190.00   63.7    -0    2.5   184     4.2     0.0    0.01 
 244   13:40   -8190.00   64.2    -0    2.7   200     4.6     0.0    0.01 
 244   13:50   -8190.00   64.1    -0    2.7   199     5.1     0.0    0.01 
 244   14:00   -8190.00   64.6    -0    2.9   218     4.5     0.0    0.01 
 244   14:10   -8190.00   64.7    -1    2.9   221     5.3     0.0    0.01 
 244   14:20   -8190.00   65.2    -0    2.6   203     4.2     0.0    0.01 
 244   14:30   -8190.00   66.8     0    2.2   210     4.5     0.0    0.01 
 244   14:40   -8190.00   66.7    -0    2.5   220     5.4     0.0    0.01 
 244   14:50   -8190.00   67.9     0    1.9   191     4.4     0.0    0.01 
 244   15:00   -8190.00   68.3     0    2.9   187     6.0     0.0    0.01 
 244   15:10   -8190.00   68.0    -0    3.1   193     5.3     0.0    0.01 
 244   15:20   -8190.00   68.3    -1    2.7   189     6.4     0.0    0.01 
 244   15:30   -8190.00   67.1    -2    2.0   230     3.5     0.0    0.01 
 244   15:40   -8190.00   67.1    -2    1.4   209     3.2     0.0    0.01 
 244   15:50   -8190.00   68.6    -0    2.2   194     4.0     0.0    0.01 
 244   16:00   -8190.00   68.1    -1    2.2   173     6.2     0.0    0.01 
 244   16:10   -8190.00   68.4    -1    2.4   188     5.1     0.0    0.01 
 244   16:20   -8190.00   68.7    -1    1.9   190     4.7     0.0    0.01 
 244   16:30   -8190.00   67.1    -2    2.9   219     5.0     0.0    0.01 
 244   16:40   -8190.00   65.6    -3    2.7   228     5.8     0.0    0.01 
 244   16:50   -8190.00   65.8    -2    2.2   217     3.9     0.0    0.01 
 244   17:00   -8190.00   65.6    -2    2.0   248     3.5     0.0    0.01 
 244   17:10   -8190.00   65.4    -2    1.0   229     1.5     0.0    0.01 
 244   17:20   -8190.00   65.1    -2    0.9   249     2.5     0.0    0.01 
 244   17:30   -8190.00   65.2    -2    0.5   250     1.2     0.0    0.01 
 244   17:40   -8190.00   65.9    -1    0.0   190     0.4     0.0    0.01 
 244   17:50   -8190.00   66.1    -1    0.6   113     2.0     0.0    0.01 
 244   18:00   -8190.00   63.8    -2    1.0   271     1.7     0.0    0.01 
 244   18:10   -8190.00   63.3    -2    0.2    73     1.0     0.0    0.01 
 244   18:20   -8190.00   61.3    -3    0.4   316     1.0     0.0    0.01 
 244   18:30   -8190.00   60.2    -3    0.3   235     1.0     0.0    0.01 
 244   18:40   -8190.00   58.5    -3    0.3   202     1.3     0.0    0.01 
 244   18:50   -8190.00   58.4    -2    0.5   238     1.3     0.0    0.01 
 244   19:00   -8190.00   57.0    -2    0.0     0     0.0     0.0    0.01 
 244   19:10   4.83   54.4    -1    0.6   323     1.3     0.0    0.01 
 244   19:20   4.59   52.4     6    0.4    44     1.5     0.0    0.01 
 244   19:30   4.28   50.7    10    0.3    96     0.9     0.0    0.01 
 244   19:40   4.55   50.9    12    0.2    98     0.7     0.0    0.01 
 244   19:50   4.26   51.0    12    0.0    98     0.4     0.0    0.01 
 244   20:00   3.61   50.5    13    0.0    98     0.4     0.0    0.01 
 244   20:10   3.59   50.6    13    0.0     0     0.0     0.0    0.01 
 244   20:20   3.55   50.9    12    0.1    46     0.6     0.0    0.01 

Return to Hidden Valley, Valles Caldera graphs page.


Western Regional Climate Center,wrcc@dri.edu